OCO 2

Last updated on Fri Sep 19 2025 00:03:35 GMT+0000 (Coordinated Universal Time)

1 40059U 14035A 25261.15476289 .00000497 00000+0 12051-3 0 9990 2 40059 98.2067 201.2879 0001761 87.9352 272.2048 14.57090374596432
UTC large
Height (km)
Speed (km/s)
/
Latitude / Longitude
Inclination (degrees)
Orbital Period (minutes)
Azimuth
Elevation
Range (km)
Doppler Factor

Next 0 passes for location: London (51.5072 / 0.1276)

Sorry there are no passes over London.